When you browse on this site, cookies collect data to enhance your experience and personalize the content and advertising you see.
Visit our Privacy Policy to learn more. By continuing to use the site, you agree to this use of cookies and data.
  • En España
  • Lista de países
  • Para 7 días
  • Temperatura del agua
  • El tiempo en el mapa
  • Informadores
  • user-avatar
    Iniciar sesión

    Tiempo cada hora Braga

    Hoy, 4 Junio, Jueves

    Tiempo Temperatura Precipitaciones Viento Presión Humedad
    00:00 +18°C° 0 mm 1 mps 747 mmHg 96%
    01:00 +18°C° 0 mm 1 mps 746 mmHg 96%
    02:00 +18°C° 0 mm 1 mps 746 mmHg 95%
    03:00 +16°C° 0 mm 1 mps 746 mmHg 94%
    04:00 +16°C° 0 mm 1 mps 746 mmHg 94%
    05:00 +16°C° 0 mm 1 mps 746 mmHg 93%
    06:00 +18°C° 0 mm 2 mps 746 mmHg 82%
    07:00 +19°C° 0 mm 2 mps 746 mmHg 70%
    08:00 +20°C° 0 mm 2 mps 747 mmHg 59%
    09:00 +21°C° 0 mm 3 mps 747 mmHg 55%
    10:00 +22°C° 0 mm 4 mps 747 mmHg 51%
    11:00 +23°C° 0 mm 4 mps 748 mmHg 48%
    12:00 +23°C° 0 mm 4 mps 748 mmHg 48%
    13:00 +23°C° 0 mm 5 mps 747 mmHg 48%
    14:00 +23°C° 0 mm 5 mps 747 mmHg 48%
    15:00 +23°C° 0 mm 5 mps 747 mmHg 50%
    16:00 +22°C° 0 mm 5 mps 747 mmHg 53%
    17:00 +22°C° 0 mm 4 mps 748 mmHg 55%
    18:00 +20°C° 0 mm 4 mps 748 mmHg 63%
    19:00 +18°C° 0 mm 3 mps 749 mmHg 71%
    20:00 +16°C° 0 mm 2 mps 749 mmHg 79%
    21:00 +16°C° 0 mm 2 mps 749 mmHg 81%
    22:00 +15°C° 0 mm 2 mps 749 mmHg 83%
    23:00 +15°C° 0 mm 2 mps 750 mmHg 85%

    Mañana, 5 Junio, Viernes

    Tiempo Temperatura Precipitaciones Viento Presión Humedad
    00:00 +14°C° 0 mm 2 mps 750 mmHg 85%
    01:00 +14°C° 0 mm 2 mps 749 mmHg 84%
    02:00 +13°C° 0 mm 2 mps 749 mmHg 84%
    03:00 +14°C° 0 mm 1 mps 749 mmHg 81%
    04:00 +14°C° 0 mm 1 mps 749 mmHg 79%
    05:00 +14°C° 0 mm 1 mps 749 mmHg 76%
    06:00 +18°C° 0 mm 1 mps 749 mmHg 66%
    07:00 +20°C° 0 mm 1 mps 750 mmHg 56%
    08:00 +23°C° 0 mm 1 mps 750 mmHg 45%
    09:00 +24°C° 0 mm 1 mps 750 mmHg 44%
    10:00 +25°C° 0 mm 2 mps 750 mmHg 42%
    11:00 +26°C° 0 mm 3 mps 749 mmHg 41%
    12:00 +25°C° 0 mm 3 mps 749 mmHg 44%
    13:00 +25°C° 0 mm 4 mps 749 mmHg 47%
    14:00 +25°C° 0 mm 4 mps 749 mmHg 51%
    15:00 +23°C° 0 mm 4 mps 749 mmHg 54%
    16:00 +24°C° 0 mm 3 mps 748 mmHg 58%
    17:00 +22°C° 0 mm 3 mps 748 mmHg 62%
    18:00 +20°C° 0 mm 3 mps 748 mmHg 71%
    19:00 +18°C° 0 mm 2 mps 749 mmHg 79%
    20:00 +16°C° 0 mm 2 mps 749 mmHg 88%
    21:00 +16°C° 0 mm 2 mps 749 mmHg 90%
    22:00 +15°C° 0 mm 1 mps 749 mmHg 92%
    23:00 +15°C° 0 mm 1 mps 749 mmHg 93%

    Pasado mañana, 6 Junio, Sábado

    Tiempo Temperatura Precipitaciones Viento Presión Humedad
    00:00 +15°C° 0 mm 1 mps 749 mmHg 94%
    01:00 +15°C° 0 mm 1 mps 749 mmHg 94%
    02:00 +15°C° 0 mm 1 mps 748 mmHg 94%
    03:00 +15°C° 0 mm 1 mps 748 mmHg 93%
    04:00 +15°C° 0 mm 1 mps 748 mmHg 92%
    05:00 +16°C° 0 mm 1 mps 748 mmHg 90%
    06:00 +18°C° 0 mm 1 mps 748 mmHg 87%
    07:00 +18°C° 0 mm 1 mps 748 mmHg 83%
    08:00 +19°C° 0 mm 1 mps 749 mmHg 80%
    09:00 +19°C° 0 mm 2 mps 748 mmHg 76%
    10:00 +20°C° 0 mm 2 mps 748 mmHg 73%
    11:00 +20°C° 0 mm 2 mps 748 mmHg 69%
    12:00 +21°C° 0 mm 2 mps 748 mmHg 68%
    13:00 +21°C° 0 mm 3 mps 748 mmHg 67%
    14:00 +21°C° 0 mm 3 mps 747 mmHg 66%
    15:00 +21°C° 0 mm 3 mps 747 mmHg 68%
    16:00 +20°C° 0 mm 3 mps 747 mmHg 70%
    17:00 +20°C° 0 mm 4 mps 747 mmHg 71%
    18:00 +18°C° 0 mm 3 mps 747 mmHg 77%
    19:00 +17°C° 0 mm 2 mps 748 mmHg 83%
    20:00 +15°C° 0 mm 2 mps 748 mmHg 89%
    21:00 +15°C° 0 mm 2 mps 748 mmHg 90%
    22:00 +15°C° 0 mm 1 mps 748 mmHg 92%
    23:00 +14°C° 0 mm 1 mps 748 mmHg 93%

    7 Junio, Domingo

    Tiempo Temperatura Precipitaciones Viento Presión Humedad
    00:00 +14°C° 0 mm 1 mps 747 mmHg 93%
    01:00 +14°C° 0 mm 1 mps 747 mmHg 93%
    02:00 +14°C° 0 mm 1 mps 747 mmHg 93%
    03:00 +14°C° 0 mm 1 mps 747 mmHg 91%
    04:00 +14°C° 0 mm 0 mps 748 mmHg 90%
    05:00 +14°C° 0 mm 0 mps 748 mmHg 89%
    06:00 +16°C° 0 mm 1 mps 748 mmHg 84%
    07:00 +18°C° 0 mm 1 mps 748 mmHg 80%
    08:00 +18°C° 0 mm 2 mps 749 mmHg 76%
    09:00 +19°C° 0.1 mm 3 mps 749 mmHg 70%
    10:00 +20°C° 0.1 mm 3 mps 749 mmHg 64%
    11:00 +21°C° 0.1 mm 4 mps 749 mmHg 58%
    12:00 +21°C° 0 mm 4 mps 749 mmHg 56%
    13:00 +22°C° 0 mm 4 mps 749 mmHg 53%
    14:00 +22°C° 0 mm 5 mps 749 mmHg 50%
    15:00 +22°C° 0 mm 5 mps 749 mmHg 50%
    16:00 +21°C° 0 mm 5 mps 749 mmHg 50%
    17:00 +21°C° 0 mm 5 mps 749 mmHg 51%
    18:00 +19°C° 0 mm 4 mps 749 mmHg 56%
    19:00 +17°C° 0 mm 4 mps 750 mmHg 62%
    20:00 +14°C° 0 mm 3 mps 750 mmHg 68%
    21:00 +13°C° 0 mm 3 mps 750 mmHg 69%
    22:00 +12°C° 0 mm 3 mps 751 mmHg 70%
    23:00 +11°C° 0 mm 3 mps 751 mmHg 72%

    8 Junio, Lunes

    Tiempo Temperatura Precipitaciones Viento Presión Humedad
    00:00 +10°C° 0 mm 3 mps 751 mmHg 72%
    01:00 +10°C° 0 mm 2 mps 751 mmHg 72%
    02:00 +9°C° 0 mm 2 mps 751 mmHg 72%
    03:00 +9°C° 0 mm 2 mps 751 mmHg 73%
    04:00 +10°C° 0 mm 2 mps 751 mmHg 73%
    05:00 +10°C° 0 mm 2 mps 751 mmHg 74%
    06:00 +14°C° 0 mm 2 mps 751 mmHg 66%
    07:00 +16°C° 0 mm 2 mps 751 mmHg 58%
    08:00 +20°C° 0 mm 1 mps 751 mmHg 50%
    09:00 +21°C° 0 mm 2 mps 751 mmHg 46%
    10:00 +23°C° 0 mm 2 mps 751 mmHg 42%
    11:00 +25°C° 0 mm 3 mps 751 mmHg 38%
    12:00 +25°C° 0 mm 3 mps 751 mmHg 39%
    13:00 +25°C° 0 mm 4 mps 751 mmHg 40%
    14:00 +25°C° 0 mm 4 mps 751 mmHg 41%
    15:00 +23°C° 0 mm 4 mps 750 mmHg 44%
    16:00 +23°C° 0 mm 4 mps 750 mmHg 47%
    17:00 +22°C° 0 mm 4 mps 750 mmHg 51%
    18:00 +20°C° 0 mm 3 mps 751 mmHg 58%
    19:00 +18°C° 0 mm 3 mps 751 mmHg 65%
    20:00 +17°C° 0 mm 3 mps 751 mmHg 72%
    21:00 +16°C° 0 mm 3 mps 751 mmHg 74%
    22:00 +14°C° 0 mm 3 mps 751 mmHg 76%
    23:00 +14°C° 0 mm 2 mps 751 mmHg 78%

    9 Junio, Martes

    Tiempo Temperatura Precipitaciones Viento Presión Humedad
    00:00 +14°C° 0 mm 2 mps 751 mmHg 78%
    01:00 +14°C° 0 mm 2 mps 751 mmHg 79%
    02:00 +13°C° 0 mm 2 mps 751 mmHg 79%
    03:00 +14°C° 0 mm 2 mps 751 mmHg 78%
    04:00 +14°C° 0 mm 2 mps 751 mmHg 77%
    05:00 +14°C° 0 mm 2 mps 751 mmHg 76%
    06:00 +17°C° 0 mm 2 mps 751 mmHg 66%
    07:00 +19°C° 0 mm 2 mps 752 mmHg 57%
    08:00 +23°C° 0 mm 2 mps 752 mmHg 48%
    09:00 +24°C° 0 mm 3 mps 752 mmHg 44%
    10:00 +26°C° 0 mm 3 mps 752 mmHg 40%
    11:00 +27°C° 0 mm 3 mps 751 mmHg 36%
    12:00 +27°C° 0 mm 3 mps 751 mmHg 37%
    13:00 +27°C° 0 mm 3 mps 751 mmHg 38%
    14:00 +27°C° 0 mm 3 mps 750 mmHg 39%
    15:00 +26°C° 0 mm 3 mps 750 mmHg 41%
    16:00 +26°C° 0 mm 3 mps 750 mmHg 44%
    17:00 +25°C° 0 mm 3 mps 750 mmHg 47%
    18:00 +22°C° 0 mm 3 mps 751 mmHg 53%
    19:00 +21°C° 0 mm 3 mps 751 mmHg 60%
    20:00 +19°C° 0 mm 3 mps 751 mmHg 66%
    21:00 +18°C° 0 mm 3 mps 751 mmHg 68%
    22:00 +17°C° 0 mm 3 mps 751 mmHg 70%
    23:00 +17°C° 0 mm 2 mps 751 mmHg 72%
    Mostrar más